Date,TemperatureHighF,TemperatureAvgF,TemperatureLowF,DewpointHighF,DewpointAvgF,DewpointLowF,HumidityHigh,HumidityAvg,HumidityLow,PressureMaxIn,PressureMinIn,WindSpeedMaxMPH,WindSpeedAvgMPH,GustSpeedMaxMPH,PrecipitationSumIn
2013-1-1,37,31,24,37,31,24,100,100,100,30.24,30.01,15,2,15,0.00
2013-1-2,34,26,20,33,22,16,100,86,57,30.24,30.15,12,2,13,0.00
2013-1-3,44,31,18,38,23,17,100,75,48,30.42,30.24,10,2,14,0.00
2013-1-4,47,34,20,33,22,16,100,66,40,30.45,30.30,16,4,17,0.00
2013-1-5,42,35,26,33,28,18,95,75,66,30.30,30.15,22,5,23,0.00
2013-1-6,47,33,23,31,23,14,100,71,37,30.36,30.21,15,3,16,0.00
2013-1-7,52,37,22,29,23,15,90,60,37,30.33,30.12,20,4,21,0.00
2013-1-8,58,42,28,48,33,20,100,71,48,30.21,30.03,16,3,19,0.18
2013-1-9,54,50,46,51,44,37,100,83,55,30.33,30.21,22,7,30,0.08
2013-1-10,58,50,46,58,50,39,100,97,63,30.21,29.83,27,9,28,0.04
2013-1-11,66,56,44,49,45,41,100,71,44,29.89,29.77,30,9,32,0.00
2013-1-12,58,44,29,52,38,29,100,83,44,29.95,29.80,31,8,33,0.36
2013-1-13,29,23,16,29,19,14,100,86,69,30.33,29.95,12,9,17,0.00
2013-1-14,35,23,13,21,14,9,99,71,42,30.42,30.30,19,7,20,0.00
2013-1-15,35,25,15,20,16,12,94,70,45,30.30,30.12,16,4,17,0.00
2013-1-16,43,28,15,26,17,13,100,68,41,30.18,30.09,19,3,20,0.00
2013-1-17,49,34,23,33,23,15,84,65,42,30.48,30.18,19,3,20,0.00
2013-1-18,56,40,23,33,26,20,100,61,34,30.48,30.18,24,6,26,0.00
2013-1-19,63,48,36,36,30,24,81,52,34,30.21,30.09,23,7,26,0.00
2013-1-20,61,44,29,36,28,16,88,56,34,30.27,30.12,22,5,23,0.00
2013-1-21,40,29,21,18,14,12,67,54,40,30.36,30.24,14,7,20,0.00
2013-1-22,47,33,21,27,19,12,71,57,42,30.30,30.18,16,4,17,0.00
2013-1-23,62,43,26,43,33,18,94,69,46,30.27,30.12,19,4,20,0.00
2013-1-24,44,38,33,33,21,17,66,50,42,30.30,30.09,22,8,23,0.00
2013-1-25,50,38,30,39,30,23,100,75,48,30.24,30.09,14,2,14,0.00
2013-1-26,62,46,34,31,26,20,79,48,25,30.24,30.12,19,6,20,0.00
2013-1-27,60,54,47,59,50,30,100,86,50,30.12,29.95,26,9,27,0.00
2013-1-28,72,66,59,64,62,58,100,86,63,30.01,29.86,34,12,35,0.00
2013-1-29,68,60,47,66,59,46,100,94,83,29.86,29.50,32,9,33,1.85
2013-1-30,47,32,22,47,28,17,100,86,70,30.03,29.53,32,12,34,0.04
2013-1-31,48,27,19,30,20,7,99,77,46,30.42,30.00,24,5,26,0.00
2013-2-1,46,27,12,21,11,4,73,53,37,30.42,30.15,16,5,17,0.00
2013-2-2,54,38,23,31,24,13,75,57,38,30.24,30.15,23,5,24,0.00
2013-2-3,54,44,32,33,25,19,81,48,34,30.27,29.98,19,4,20,0.00
2013-2-4,61,50,36,45,36,24,88,60,41,29.98,29.83,55,6,57,0.14
2013-2-5,66,46,29,54,34,27,100,69,30,30.06,29.92,20,3,21,0.00
2013-2-6,65,51,35,41,35,28,84,56,37,30.12,29.98,19,6,20,0.00
2013-2-7,57,51,42,56,50,39,100,95,74,30.09,29.86,22,6,23,0.02
2013-2-8,53,42,33,40,32,28,95,71,44,30.27,30.09,21,6,22,0.00
2013-2-9,48,41,34,45,34,27,100,79,44,30.21,29.86,58,8,61,0.07
2013-2-10,61,52,40,55,38,24,100,65,33,30.06,29.65,35,13,36,0.24
2013-2-11,55,40,28,29,23,17,83,53,33,30.18,30.03,15,2,16,0.00
2013-2-12,46,38,29,36,28,22,100,70,50,30.15,29.92,14,4,15,0.06
2013-2-13,51,39,33,42,33,28,100,81,48,30.01,29.95,22,7,23,0.08
2013-2-14,57,45,34,34,31,28,86,58,40,30.15,29.95,14,5,14,0.00
2013-2-15,44,35,22,27,17,7,69,48,38,30.30,30.15,20,4,21,0.00
2013-2-16,37,32,22,25,18,10,86,58,44,30.30,30.12,14,5,20,0.00
2013-2-17,63,49,32,33,25,14,53,41,32,30.12,29.83,26,8,27,0.00
2013-2-18,58,50,34,54,38,23,96,65,38,30.12,29.62,39,12,40,0.03
2013-2-19,46,34,22,24,18,12,75,53,38,30.30,30.12,27,4,28,0.00
2013-2-20,34,32,28,32,21,13,92,66,45,30.30,30.03,19,6,20,0.00
2013-2-21,36,33,29,36,32,25,100,96,81,30.06,29.68,29,5,30,0.39
2013-2-22,38,29,21,34,21,17,100,74,51,30.09,29.86,30,9,31,0.00
2013-2-23,45,31,19,27,21,17,99,69,42,30.09,29.95,16,2,17,0.00
2013-2-24,59,44,26,36,29,20,90,58,34,30.01,29.83,19,6,20,0.00
2013-2-25,42,39,36,41,34,27,100,82,58,29.89,29.44,156,10,163,0.21
2013-2-26,36,34,32,36,34,32,100,100,100,29.89,29.39,26,6,27,0.00
2013-2-27,39,34,32,35,30,25,100,87,65,30.06,29.86,32,10,33,0.04
2013-2-28,36,32,27,30,26,23,99,79,65,30.18,30.06,19,7,20,0.00
2013-3-1,33,30,26,25,21,17,87,70,59,30.24,30.15,22,6,23,0.00
2013-3-2,40,29,24,24,20,13,94,73,42,30.30,30.18,17,4,18,0.00
2013-3-3,58,43,23,31,25,15,78,52,34,30.18,29.80,22,6,23,0.00
2013-3-4,65,54,44,48,38,29,90,55,45,29.86,29.62,27,7,28,0.00
2013-3-5,45,38,32,37,26,17,100,62,41,30.30,29.86,41,11,43,0.01
2013-3-6,50,36,24,25,20,15,75,53,37,30.39,30.21,19,4,20,0.00
2013-3-7,64,50,37,31,27,22,59,42,28,30.27,30.12,18,6,19,0.00
2013-3-8,63,51,43,38,32,28,62,49,36,30.24,30.03,22,7,23,0.01
2013-3-9,68,59,53,59,46,34,100,65,44,30.06,29.71,27,8,28,1.43
2013-3-10,56,44,30,56,44,30,100,99,78,29.95,29.68,32,10,34,0.67
2013-3-11,45,34,27,30,25,19,100,73,42,30.03,29.89,30,11,31,0.00
2013-3-12,56,43,28,31,26,16,82,54,34,30.30,30.03,29,6,31,0.00
2013-3-13,54,39,26,26,20,15,73,47,32,30.45,30.30,15,3,16,0.00
2013-3-14,71,52,34,41,30,17,66,45,32,30.36,30.12,35,7,37,0.00
2013-3-15,79,64,47,49,43,39,86,49,28,30.12,29.80,32,10,34,0.00
2013-3-16,76,62,52,50,43,38,73,49,37,29.89,29.77,26,8,27,0.00
2013-3-17,51,44,41,44,41,37,100,91,62,29.89,29.68,21,8,22,0.04
2013-3-18,56,46,34,46,37,24,100,76,37,30.06,29.71,19,5,20,0.02
2013-3-19,57,44,33,30,25,22,82,50,29,30.24,30.03,19,5,20,0.00
2013-3-20,49,38,28,34,22,12,98,56,34,30.36,30.09,21,4,22,0.00
2013-3-21,44,35,32,35,24,14,100,68,37,30.09,29.80,21,8,22,0.23
2013-3-22,40,37,33,40,37,33,100,100,100,29.95,29.83,18,6,18,0.28
2013-3-23,41,38,36,41,38,36,100,100,100,29.92,29.71,16,6,17,0.00
2013-3-24,40,33,26,40,30,18,100,90,66,30.12,29.65,45,10,57,0.04
2013-3-25,34,28,23,24,20,17,84,71,54,30.33,30.06,28,10,29,0.00
2013-3-26,45,32,20,30,20,15,100,64,41,30.42,30.27,19,4,20,0.00
2013-3-27,60,45,27,30,25,17,74,49,29,30.30,30.12,20,5,21,0.00
2013-3-28,69,58,47,46,38,24,61,48,40,30.21,30.12,22,7,23,0.00
2013-3-29,68,59,52,59,52,45,100,79,57,30.21,30.09,18,4,18,0.31
2013-3-30,68,60,54,58,56,52,100,88,58,30.12,29.89,19,6,20,0.50
2013-3-31,70,58,46,59,45,35,100,68,30,30.01,29.89,20,3,22,0.08
2013-4-1,64,49,39,48,39,30,100,72,42,30.18,29.98,22,6,23,0.01
2013-4-2,43,38,36,38,36,28,100,95,57,30.27,30.18,19,8,20,0.43
2013-4-3,51,43,36,34,27,23,92,55,38,30.24,30.15,22,8,23,0.12
2013-4-4,59,47,38,41,34,28,95,65,36,30.15,30.06,16,3,17,0.05
2013-4-5,70,53,32,44,34,29,100,54,29,30.21,30.01,16,4,17,0.00
2013-4-6,73,63,54,46,41,32,61,46,33,30.01,29.83,32,10,34,0.04
2013-4-7,75,64,50,60,53,44,100,69,46,29.95,29.77,29,7,30,0.04
2013-4-8,71,66,60,62,59,54,100,78,62,29.83,29.74,30,8,31,0.18
2013-4-9,79,71,64,64,59,56,82,66,48,29.80,29.74,27,9,28,0.00
2013-4-10,74,47,37,66,46,36,100,96,62,29.89,29.77,28,8,29,0.70
2013-4-11,52,40,33,37,32,26,100,77,42,29.89,29.77,26,10,27,0.04
2013-4-12,56,45,34,36,32,27,94,62,41,30.03,29.83,22,6,26,0.00
2013-4-13,69,55,40,46,40,32,84,58,37,30.06,29.83,21,5,22,0.01
2013-4-14,77,68,57,51,46,42,65,47,32,29.83,29.56,30,9,31,0.00
2013-4-15,79,67,57,65,58,49,92,72,54,29.86,29.71,24,7,26,0.00
2013-4-16,80,63,52,64,58,52,100,85,53,30.01,29.86,17,6,18,0.00
2013-4-17,82,72,58,71,63,58,100,77,51,29.98,29.68,28,8,29,0.00
2013-4-18,75,49,38,68,45,27,100,86,63,30.00,28.20,53,12,55,3.82
2013-4-19,55,43,33,30,27,24,78,55,37,30.09,30.00,32,10,33,0.00
2013-4-20,68,53,35,43,34,28,94,53,30,30.21,30.09,16,4,17,0.00
2013-4-21,68,59,50,41,37,34,62,44,30,30.27,30.12,21,6,22,0.00
2013-4-22,72,60,44,43,39,34,75,47,32,30.21,29.91,22,6,23,0.00
2013-4-23,62,50,36,57,45,36,100,85,51,30.12,29.83,16,5,17,0.13
2013-4-24,55,43,34,40,32,25,100,71,37,30.33,30.12,19,5,20,0.00
2013-4-25,69,52,30,40,32,25,98,51,26,30.36,30.21,13,3,14,0.00
2013-4-26,59,53,48,52,44,31,100,76,36,30.33,30.12,69,7,72,0.67
2013-4-27,57,53,50,57,53,50,100,100,100,30.12,29.94,21,4,22,0.63
2013-4-28,75,61,50,58,51,46,100,74,41,30.03,29.88,16,3,17,0.00
2013-4-29,83,69,51,61,54,48,100,62,30,29.94,29.80,24,6,26,0.00
2013-4-30,81,71,56,63,50,42,98,51,28,29.88,29.83,24,6,25,0.00
2013-5-1,82,71,60,64,56,47,87,61,40,30.09,29.88,19,5,20,0.00
2013-5-2,63,49,33,62,47,33,100,95,83,30.27,30.06,21,5,22,0.29
2013-5-3,46,38,33,44,35,27,100,91,51,30.24,29.94,21,5,22,0.39
2013-5-4,45,39,34,44,37,34,100,93,74,30.00,29.85,16,5,17,0.20
2013-5-5,61,48,36,50,43,35,100,83,50,30.09,30.00,19,4,20,0.00
2013-5-6,65,54,48,58,51,47,100,91,62,30.12,30.03,14,4,14,0.12
2013-5-7,76,62,43,65,50,43,100,70,36,30.12,30.00,15,2,16,0.00
2013-5-8,79,67,54,61,55,50,96,68,40,30.09,29.91,20,3,21,0.00
2013-5-9,76,65,58,68,60,55,100,87,53,30.00,29.91,35,6,37,3.51
2013-5-10,70,62,53,67,59,52,100,92,59,30.09,29.91,19,4,20,1.81
2013-5-11,73,60,47,64,47,32,100,68,30,30.21,30.06,23,3,24,0.00
2013-5-12,69,54,38,50,38,32,99,57,30,30.30,30.15,16,2,17,1.81
2013-5-13,80,66,48,54,49,42,87,58,34,30.18,30.06,24,6,26,1.81
2013-5-14,86,74,61,57,51,47,63,46,26,30.09,29.97,25,9,26,1.81
2013-5-15,75,68,64,68,60,47,100,78,49,30.03,29.88,23,7,24,0.20
2013-5-16,69,65,62,68,64,62,100,97,87,29.91,29.83,12,3,13,1.81
2013-5-17,82,70,56,70,62,56,100,79,50,29.94,29.88,11,2,11,1.81
2013-5-18,84,75,65,76,71,65,100,86,67,29.94,29.83,22,5,23,0.00
2013-5-19,87,78,71,73,65,57,100,69,38,29.88,28.29,30,8,31,11.72
2013-5-20,78,72,61,72,68,58,100,87,71,29.83,28.38,43,7,45,0.64
2013-5-21,64,61,58,64,61,58,100,100,100,29.92,29.59,32,7,33,0.96
2013-5-22,74,64,54,66,56,53,100,79,49,29.95,29.80,22,6,24,0.00
2013-5-23,75,64,55,65,58,55,100,81,54,30.15,28.61,15,3,16,1.54
2013-5-24,78,67,57,59,56,53,99,70,50,30.27,30.15,18,6,18,0.00
2013-5-25,83,73,60,65,59,49,83,63,49,30.21,30.06,19,6,20,0.00
2013-5-26,82,74,63,69,63,57,100,71,49,30.12,29.97,24,6,26,0.00
2013-5-27,83,76,69,71,65,57,100,71,46,30.00,29.82,27,9,28,0.00
2013-5-28,83,76,72,69,64,60,90,68,49,29.88,29.76,29,10,30,0.00
2013-5-29,80,75,70,67,64,62,87,69,57,29.88,29.76,24,8,26,0.00
2013-5-30,78,71,63,71,66,61,100,86,61,29.88,29.73,37,8,39,0.91
2013-5-31,85,76,63,74,70,63,100,85,61,29.82,29.67,32,8,34,0.04
2013-6-1,77,70,60,74,65,56,100,85,59,30.00,29.67,49,7,52,0.47
2013-6-2,68,61,54,64,57,54,100,86,65,30.06,29.97,14,3,14,0.08
2013-6-3,79,66,48,63,55,48,100,73,41,30.06,29.88,11,3,11,0.00
2013-6-4,78,69,63,69,63,58,95,81,62,30.00,29.88,18,4,19,0.00
2013-6-5,78,69,63,75,65,62,100,88,63,30.03,29.85,22,6,23,0.35
2013-6-6,74,66,57,72,60,54,100,85,58,29.94,29.88,16,3,17,0.00
2013-6-7,78,65,53,68,54,50,100,72,40,30.00,29.91,13,2,16,0.00
2013-6-8,81,68,52,67,56,52,100,68,41,29.94,29.85,14,3,14,0.00
2013-6-9,82,73,66,70,60,54,99,66,40,29.91,29.85,20,5,21,0.01
2013-6-10,91,78,65,70,64,58,91,65,37,29.94,29.85,24,8,26,0.00
2013-6-11,92,82,70,71,66,60,91,61,37,30.00,29.91,24,7,26,0.00
2013-6-12,90,82,73,73,69,63,96,67,42,30.00,29.91,32,11,33,0.00
2013-6-13,90,80,71,76,68,60,100,70,38,30.03,29.94,13,4,14,0.00
2013-6-14,92,81,70,74,71,67,95,74,50,30.03,29.94,14,5,15,0.00
2013-6-15,89,77,69,73,69,65,100,77,53,30.03,29.94,20,4,21,0.23
2013-6-16,88,76,69,75,70,62,100,81,54,30.00,29.91,19,4,20,0.04
2013-6-17,72,69,65,72,69,65,100,99,86,29.97,29.88,15,3,16,0.39
2013-6-18,85,72,62,77,64,56,100,80,40,30.03,29.94,16,2,17,0.00
2013-6-19,87,74,62,75,64,58,100,74,40,30.06,29.97,16,2,17,0.00
2013-6-20,89,79,68,72,68,64,98,72,49,30.09,30.00,19,5,20,0.00
2013-6-21,90,82,74,75,72,66,99,74,48,30.09,30.00,21,6,22,0.00
2013-6-22,88,81,72,74,70,64,99,73,46,30.06,29.94,21,6,22,0.00
2013-6-23,90,80,72,75,70,63,100,73,45,30.00,29.91,23,6,24,0.00
2013-6-24,89,81,74,74,69,63,92,70,44,30.06,29.94,22,6,23,0.00
2013-6-25,88,80,75,74,69,63,91,70,45,29.97,29.85,26,8,27,0.00
2013-6-26,92,82,75,79,73,70,98,76,51,29.94,29.85,24,7,26,0.01
2013-6-27,97,85,71,81,73,67,100,71,40,29.97,29.88,13,4,14,0.00
2013-6-28,91,82,71,77,68,58,95,66,37,29.94,29.85,16,4,17,0.00
2013-6-29,86,74,62,63,55,47,95,54,28,29.91,29.79,26,4,27,0.00
2013-6-30,80,71,60,65,58,52,100,67,46,29.97,29.85,18,4,19,0.00
2013-7-1,83,70,59,67,55,44,100,65,29,30.03,29.97,20,4,21,0.00
2013-7-2,82,69,54,64,52,45,100,60,29,30.09,30.03,16,3,17,0.00
2013-7-3,84,68,54,66,53,44,100,65,26,30.12,29.97,18,2,19,0.00
2013-7-4,87,75,59,63,55,50,92,54,29,30.06,29.97,15,4,15,0.00
2013-7-5,89,79,60,66,56,51,95,49,28,30.03,29.94,17,4,18,0.00
2013-7-6,90,78,67,66,59,53,87,54,32,30.03,29.94,14,4,14,0.01
2013-7-7,91,81,71,70,63,55,91,58,30,30.06,29.97,16,4,17,0.00
2013-7-8,93,83,70,73,66,60,92,59,37,30.12,30.03,16,4,17,0.00
2013-7-9,94,81,74,74,69,63,92,68,37,30.09,29.97,23,4,24,0.00
2013-7-10,99,86,73,72,67,62,87,56,33,30.03,29.91,19,4,20,0.01
2013-7-11,96,82,70,77,67,54,100,65,28,30.03,29.94,14,3,17,0.01
2013-7-12,94,81,71,67,61,55,73,53,37,30.06,29.97,15,5,16,0.00
2013-7-13,89,78,68,60,56,53,75,49,32,30.06,29.97,12,3,13,0.00
2013-7-14,88,78,65,64,56,47,86,48,25,30.06,29.97,20,5,21,0.00
2013-7-15,92,78,70,71,65,59,92,67,37,30.18,30.03,19,5,26,0.00
2013-7-16,88,77,68,77,70,66,100,83,51,30.27,30.15,16,2,17,0.04
2013-7-17,93,79,69,78,68,56,100,73,30,30.32,30.18,15,2,15,0.00
2013-7-18,95,80,68,79,67,59,100,68,36,30.21,30.03,19,2,20,0.00
2013-7-19,95,81,71,73,67,62,90,66,36,30.06,29.94,16,4,17,0.00
2013-7-20,95,79,68,74,69,64,100,77,38,29.97,29.85,22,6,23,0.05
2013-7-21,83,74,68,78,73,68,100,97,81,29.97,29.85,14,1,14,0.25
2013-7-22,89,76,66,76,69,64,100,82,50,30.00,29.85,32,5,33,0.51
2013-7-23,97,84,70,77,72,67,100,70,41,29.94,29.79,27,7,30,0.16
2013-7-24,86,75,67,75,69,66,100,85,55,30.03,29.88,27,4,28,0.67
2013-7-25,86,75,66,76,69,62,100,83,50,30.09,30.03,11,2,11,0.00
2013-7-26,74,71,64,72,70,64,100,97,90,30.06,29.97,10,2,12,0.71
2013-7-27,82,71,63,74,63,56,100,81,44,30.06,29.97,14,2,14,0.00
2013-7-28,81,70,62,67,64,59,100,83,54,30.03,29.97,16,3,17,0.00
2013-7-29,86,77,68,76,70,66,100,82,59,30.06,29.97,19,6,20,0.00
2013-7-30,87,77,70,79,73,70,100,89,62,30.06,30.00,16,4,18,2.21
2013-7-31,89,78,71,82,75,71,100,90,58,30.06,30.00,17,2,18,0.00
2013-8-1,89,77,65,75,66,57,100,75,38,30.09,29.97,10,3,11,0.00
2013-8-2,88,77,71,78,73,69,100,86,66,30.00,29.88,16,4,17,0.00
2013-8-3,87,77,67,79,74,67,100,90,61,30.09,29.91,32,4,34,3.00
2013-8-4,77,74,71,77,74,71,100,99,94,30.12,30.00,15,3,15,0.14
2013-8-5,92,80,72,79,75,72,100,86,57,30.03,29.85,19,4,20,0.04
2013-8-6,93,82,73,80,75,70,100,81,51,29.91,29.82,15,4,16,0.04
2013-8-7,92,80,74,81,76,72,100,88,58,29.97,29.82,15,4,16,0.00
2013-8-8,83,75,67,78,73,67,100,94,73,30.00,29.85,24,4,33,3.90
2013-8-9,84,75,70,77,72,69,100,91,66,30.03,29.91,16,2,17,0.11
2013-8-10,84,75,69,74,70,67,100,86,58,30.09,30.03,18,4,19,0.00
2013-8-11,89,77,70,78,73,70,100,90,55,30.09,30.00,11,2,11,0.00
2013-8-12,83,75,70,80,73,70,100,94,74,30.09,29.97,15,2,16,0.24
2013-8-13,77,71,66,77,71,66,100,99,81,30.06,29.97,18,1,19,0.14
2013-8-14,79,69,61,68,61,54,100,79,45,30.15,30.06,17,4,18,0.00
2013-8-15,79,67,57,62,56,52,100,71,41,30.12,30.00,13,2,14,0.00
2013-8-16,79,68,62,62,58,54,91,74,46,30.09,30.03,12,2,13,0.00
2013-8-17,80,64,54,68,59,54,100,86,46,30.15,30.06,14,2,14,0.00
2013-8-18,83,70,59,72,62,55,100,78,40,30.15,30.06,11,2,12,0.00
2013-8-19,86,73,62,73,63,54,100,76,38,30.12,30.00,10,2,11,0.00
2013-8-20,87,74,63,74,64,58,100,76,40,30.09,30.03,12,2,13,0.00
2013-8-21,89,76,64,74,65,60,100,72,38,30.12,30.03,16,3,17,0.00
2013-8-22,92,79,66,75,68,63,100,72,38,30.12,30.03,13,2,14,0.00
2013-8-23,92,80,67,79,68,57,100,71,33,30.09,30.00,13,2,14,0.00
2013-8-24,90,81,72,76,70,62,100,73,42,30.15,30.06,16,3,17,0.00
2013-8-25,92,81,70,77,71,64,100,74,40,30.21,30.12,11,2,11,0.00
2013-8-26,92,79,71,76,71,65,100,78,44,30.21,30.09,14,3,14,0.00
2013-8-27,90,76,65,74,67,60,100,76,40,30.12,30.03,16,3,17,0.00
2013-8-28,91,78,67,76,69,65,100,78,42,30.09,30.00,17,4,18,0.00
2013-8-29,94,80,68,80,70,64,100,76,37,30.09,30.00,16,3,17,0.00
2013-8-30,94,82,70,79,70,63,100,73,37,30.03,29.88,16,4,17,0.00
2013-8-31,96,84,72,74,69,63,100,66,34,29.94,29.82,19,4,20,0.00
2013-9-1,91,79,72,76,70,62,100,75,38,29.91,29.82,18,3,19,0.02
2013-9-2,86,73,64,72,66,58,100,81,41,30.00,29.91,15,3,16,0.00
2013-9-3,88,72,58,74,60,52,100,74,30,30.06,29.97,15,2,15,0.00
2013-9-4,89,73,61,72,61,55,100,71,33,30.15,30.03,14,2,14,0.00
2013-9-5,89,75,62,70,61,53,100,68,30,30.18,30.09,14,2,14,0.00
2013-9-6,89,75,62,69,62,58,100,70,37,30.15,30.03,11,2,11,0.00
2013-9-7,94,80,66,73,64,58,100,64,30,30.06,29.94,14,3,15,0.00
2013-9-8,95,79,67,73,66,62,100,68,36,30.00,29.91,16,3,17,0.00
2013-9-9,94,80,66,72,64,54,100,62,26,30.03,29.94,16,3,17,0.00
2013-9-10,94,80,65,70,62,51,100,60,24,30.12,30.00,18,3,18,0.00
2013-9-11,93,80,68,79,67,60,100,70,37,30.15,30.06,11,2,11,0.00
2013-9-12,92,78,68,78,68,62,100,75,40,30.12,30.00,18,3,19,0.00
2013-9-13,84,73,63,70,55,46,91,57,29,30.09,29.97,19,6,20,0.00
2013-9-14,82,68,56,59,51,44,99,59,28,30.09,29.97,14,3,14,0.00
2013-9-15,88,74,61,62,56,49,69,53,38,30.06,30.00,19,4,20,0.04
2013-9-16,77,72,69,74,68,60,100,89,67,30.18,30.03,14,2,14,0.12
2013-9-17,85,74,67,72,68,63,100,83,51,30.12,30.00,12,4,12,0.00
2013-9-18,88,78,70,69,66,61,88,67,42,30.03,29.94,21,4,22,0.00
2013-9-19,90,79,71,73,67,61,100,70,38,30.00,29.88,25,5,26,0.24
2013-9-20,72,66,56,72,64,54,100,95,62,29.97,29.91,18,3,19,2.09
2013-9-21,77,60,47,64,50,44,100,76,32,30.00,29.91,17,3,18,0.00
2013-9-22,73,56,47,57,49,45,100,81,41,29.97,29.85,10,1,11,0.00
2013-9-23,79,64,53,57,53,47,98,71,33,29.91,29.79,15,3,16,0.00
2013-9-24,77,67,59,62,56,53,92,70,48,29.88,29.82,21,6,22,0.00
2013-9-25,82,65,53,69,59,53,100,83,45,29.88,29.82,14,2,14,0.00
2013-9-26,86,68,61,63,60,55,98,80,38,29.94,29.85,10,4,12,0.00
2013-9-27,84,73,63,68,60,54,100,67,40,30.00,29.91,19,4,20,0.00
2013-9-28,80,70,61,69,64,59,100,83,58,30.03,29.88,29,5,30,1.26
2013-9-29,77,64,54,61,56,52,100,80,42,30.06,29.91,15,3,16,0.00
2013-9-30,80,69,59,67,62,59,100,81,50,29.94,29.85,15,2,16,0.00
2013-10-1,84,74,64,73,66,63,100,80,50,30.00,29.88,19,3,20,0.00
2013-10-2,82,73,66,74,69,65,100,90,59,30.03,29.91,16,3,17,0.00
2013-10-3,84,74,67,73,68,64,100,85,55,29.94,29.82,22,5,23,0.00
2013-10-4,83,72,70,71,69,62,100,91,54,29.91,29.85,22,4,23,0.00
2013-10-5,73,57,46,73,57,46,100,99,87,30.03,29.88,22,4,23,1.80
2013-10-6,62,52,42,51,44,40,100,78,48,30.00,29.94,21,7,26,0.04
2013-10-7,72,55,41,58,46,41,100,76,36,30.12,30.00,14,2,14,0.00
2013-10-8,73,58,46,59,48,43,100,75,37,30.15,30.03,15,2,16,0.00
2013-10-9,76,60,47,56,49,45,100,71,37,30.09,30.03,11,2,12,0.00
2013-10-10,77,62,49,62,54,48,100,79,42,30.09,29.91,16,3,17,0.00
2013-10-11,75,66,57,67,62,54,100,87,65,29.94,29.85,21,5,22,0.00
2013-10-12,70,66,61,70,64,56,100,96,82,30.15,29.88,17,4,23,0.54
2013-10-13,72,63,58,58,51,45,94,66,45,30.29,30.15,16,4,17,0.00
2013-10-14,67,62,59,64,56,45,100,82,61,30.24,29.94,22,5,23,0.19
2013-10-15,65,59,51,65,59,51,100,99,94,30.03,29.88,13,3,14,0.09
2013-10-16,61,52,41,52,44,40,100,77,50,30.09,29.97,15,3,16,0.00
2013-10-17,63,49,40,56,45,40,100,86,48,30.03,29.94,16,3,17,0.00
2013-10-18,62,49,39,56,46,39,100,90,63,30.03,29.94,14,2,14,0.18
2013-10-19,58,45,36,47,39,33,100,83,42,30.12,30.00,17,5,18,0.04
2013-10-20,67,51,37,48,40,35,100,70,33,30.00,29.85,19,4,20,0.04
2013-10-21,57,49,37,54,44,36,100,84,57,30.09,29.94,14,2,15,0.04
2013-10-22,66,49,36,49,40,36,100,76,45,32.45,30.06,24,5,26,0.04
2013-10-23,62,47,35,46,38,34,100,75,37,30.06,16.77,11,2,11,0.04
2013-10-24,55,44,33,44,36,26,100,76,38,30.40,16.77,19,4,20,0.04
2013-10-25,59,44,32,37,30,27,95,63,34,30.49,30.22,19,3,20,0.04
2013-10-26,64,52,44,56,44,32,96,74,62,30.22,30.13,19,6,20,0.04
2013-10-27,65,50,40,56,46,35,100,88,33,30.13,30.01,11,2,12,0.04
2013-10-28,67,59,52,63,54,50,100,85,57,30.19,30.07,18,4,18,0.00
2013-10-29,69,65,57,68,64,57,100,98,91,30.16,30.01,20,7,23,0.08
2013-10-30,68,65,61,68,65,61,100,100,100,30.07,29.84,19,4,20,1.77
2013-10-31,72,61,48,68,59,45,100,93,42,29.84,29.54,38,8,40,0.31
2013-11-1,67,52,41,57,44,36,100,81,36,30.04,29.81,19,4,20,0.00
2013-11-2,56,46,36,45,38,31,96,77,48,30.25,30.01,19,4,20,0.00
2013-11-3,61,46,33,46,37,33,100,77,40,30.22,30.04,20,4,21,0.00
2013-11-4,58,55,51,55,46,40,100,74,62,30.19,30.04,20,6,21,0.00
2013-11-5,63,58,54,63,58,54,100,100,100,30.16,29.98,16,5,17,0.55
2013-11-6,62,45,33,62,44,32,100,97,78,30.37,29.93,32,5,33,0.31
2013-11-7,62,42,28,52,35,28,100,82,34,30.46,30.34,17,2,18,0.00
2013-11-8,64,47,34,48,37,33,100,73,33,30.37,30.10,19,5,22,0.00
2013-11-9,64,53,44,49,43,37,98,71,45,30.34,30.13,15,3,17,0.00
2013-11-10,68,55,45,54,43,38,100,69,36,30.40,30.25,14,2,15,0.00
2013-11-11,66,54,33,55,46,21,100,78,57,30.63,30.19,26,6,27,0.00
2013-11-12,42,31,21,42,19,11,100,62,38,30.72,30.43,26,6,27,0.00
2013-11-13,50,34,20,24,19,14,90,57,36,30.66,30.25,15,4,15,0.00
2013-11-14,53,43,24,33,24,15,75,48,34,30.31,30.01,22,5,23,0.00
2013-11-15,61,52,43,60,47,31,100,84,58,30.07,29.81,21,6,22,0.06
2013-11-16,70,65,53,68,61,53,100,90,67,29.90,29.60,29,11,36,0.01
2013-11-17,72,63,41,68,41,20,95,50,26,30.22,29.57,41,11,43,0.00
2013-11-18,64,50,35,40,28,20,87,46,24,30.28,30.07,19,3,20,0.00
2013-11-19,59,51,41,32,25,16,55,37,25,30.25,30.01,22,6,23,0.00
2013-11-20,60,54,44,49,28,16,100,39,25,30.07,29.93,22,7,23,0.43
2013-11-21,58,48,32,52,47,32,100,97,48,30.40,30.01,19,5,20,0.51
2013-11-22,42,32,31,42,32,30,100,100,100,30.55,30.28,20,3,21,0.00
2013-11-23,38,30,18,31,21,10,100,72,42,30.63,30.49,16,5,20,0.00
2013-11-24,33,27,18,16,14,9,71,58,48,30.63,30.25,16,6,17,0.00
2013-11-25,36,33,30,32,26,15,94,76,48,30.34,30.16,16,4,17,0.01
2013-11-26,46,36,26,32,28,13,94,74,46,30.31,30.13,22,6,23,0.00
2013-11-27,38,27,18,16,11,7,70,53,38,30.43,30.28,24,4,26,0.00
2013-11-28,53,36,23,28,20,11,78,51,38,30.46,30.28,23,6,24,0.01
2013-11-29,56,38,24,36,24,16,100,62,30,30.49,30.31,15,2,16,0.00
2013-11-30,57,45,34,46,34,21,100,66,54,30.34,30.13,21,5,22,0.00
2013-12-1,55,47,39,55,47,39,100,99,95,30.16,29.90,11,1,12,0.00
2013-12-2,64,48,39,57,44,39,100,88,51,29.90,29.69,13,2,14,0.00
2013-12-3,69,52,37,56,46,37,100,84,37,29.72,29.57,16,4,17,0.00
2013-12-4,60,47,32,55,44,32,100,91,57,29.98,29.57,32,7,33,0.00
2013-12-5,32,24,20,32,20,13,100,86,59,30.28,29.98,20,7,21,0.00
2013-12-6,20,18,14,20,16,6,100,93,69,30.55,30.22,19,7,20,0.00
2013-12-7,24,13,5,11,4,-3,73,66,51,30.60,30.31,16,6,17,0.00
2013-12-8,28,25,21,28,22,10,100,90,59,30.31,30.01,19,6,20,0.00
2013-12-9,27,24,20,27,18,11,100,81,59,30.34,30.16,16,5,17,0.00
2013-12-10,33,21,12,21,15,9,100,77,48,30.43,30.28,16,5,17,0.00
2013-12-11,37,25,15,30,17,10,100,75,51,30.60,30.28,16,3,17,0.00
2013-12-12,40,26,13,22,15,7,91,66,42,30.60,30.28,16,4,17,0.04
2013-12-13,37,34,28,36,30,20,100,86,65,30.28,29.87,18,4,19,0.67
2013-12-14,36,32,23,36,32,22,100,99,92,30.25,29.84,19,7,21,0.24
2013-12-15,50,31,20,35,26,20,100,84,50,30.28,30.13,16,3,17,0.00
2013-12-16,61,46,35,36,32,28,81,58,34,30.16,30.07,20,7,21,0.24
2013-12-17,60,43,31,47,31,22,100,69,33,30.31,30.16,16,3,17,0.24
2013-12-18,62,46,28,38,32,24,94,62,36,30.31,29.98,29,6,31,0.24
2013-12-19,61,56,52,58,50,38,95,80,54,29.98,29.75,28,10,30,0.24
2013-12-20,63,45,32,61,44,32,100,97,82,29.93,29.75,32,6,33,0.24
2013-12-21,39,35,32,39,35,32,100,100,100,29.84,29.51,28,4,29,1.16
2013-12-22,33,29,25,33,29,24,100,99,94,30.34,29.75,22,8,23,0.00
2013-12-23,29,23,15,24,20,13,95,90,69,30.55,30.34,13,4,14,0.00
2013-12-24,42,24,14,26,20,13,100,84,51,30.55,30.25,18,4,19,0.00
2013-12-25,43,30,23,36,26,21,100,87,69,30.40,30.25,18,2,18,0.00
2013-12-26,51,31,20,38,25,20,100,80,42,30.40,30.28,16,3,17,0.00
2013-12-27,57,35,25,38,26,20,100,72,37,30.43,30.31,18,2,18,0.00
2013-12-28,55,39,25,38,28,22,99,67,37,30.31,29.96,16,4,17,0.00
2013-12-29,42,33,20,40,27,13,95,81,69,30.25,29.96,18,6,18,0.00
2013-12-30,37,24,14,22,16,10,87,72,53,30.34,30.19,16,5,17,0.00
2013-12-31,54,35,19,36,23,17,100,67,36,30.37,30.16,24,4,26,0.00
2014-1-1,54,40,23,34,26,18,91,58,37,30.16,29.89,20,6,21,0.00
2014-1-2,26,17,10,20,10,3,94,74,54,30.48,30.13,22,5,23,0.00